EW8494 Weather Reports


Display with metric or nautical units.
time (UTC)temp
F
wind
direction
speed
MPH
gust
MPH
rain 1hr
in
rain 24hr
in
rain mn
in
humidity
%
barometer
mb
20260902093519 61 225 4.0 7.0 0.00 0.00 0.00 52 1005.8
20260902092519 61 203 4.0 7.0 0.00 0.00 0.00 54 1005.9
20260902091518 61 203 2.0 4.0 0.00 0.00 0.00 54 1006.0
20260902090519 62 203 2.0 4.0 0.00 0.00 0.00 54 1005.9
20260902085519 62 0.0 3.0 0.00 0.00 0.00 53 1006.1
20260902084539 62 0.0 3.0 0.00 0.00 0.00 52 1006.0
20260902083539 63 0.0 0.0 0.00 0.00 0.00 52 1006.0
20260902082518 63 203 1.0 3.0 0.00 0.00 0.00 51 1005.7
20260902081519 64 0.0 1.0 0.00 0.00 0.00 49 1005.6
20260902080519 65 225 3.0 7.0 0.00 0.00 0.00 47 1005.7
20260902075519 66 248 4.0 9.0 0.00 0.00 0.00 46 1005.4
20260902074519 66 225 3.0 7.0 0.00 0.00 0.00 45 1005.4
20260902073519 67 225 4.0 9.0 0.00 0.00 0.00 45 1005.5
20260902072519 66 225 5.0 11.0 0.00 0.00 0.00 47 1005.3
20260902071519 66 0.0 3.0 0.00 0.00 0.00 47 1005.4
20260902070519 66 225 1.0 1.0 0.00 0.00 0.00 47 1005.3
20260902065518 67 0.0 0.0 0.00 0.00 0.00 46 1005.2
20260902064539 68 0.0 0.0 0.00 0.00 0.00 44 1005.1
20260902063519 69 270 2.0 4.0 0.00 0.00 0.00 41 1005.1
20260902062519 69 248 6.0 9.0 0.00 0.00 0.00 41 1005.0
20260902061519 69 248 4.0 7.0 0.00 0.00 0.00 44 1005.0
20260902060519 69 225 4.0 7.0 0.00 0.00 0.00 43 1004.9
20260902055519 69 225 3.0 6.0 0.00 0.00 0.00 44 1004.6
20260902054518 68 225 1.0 5.0 0.00 0.00 0.00 44 1004.4
20260902053519 68 0.0 0.0 0.00 0.00 0.00 44 1004.3
20260902052519 68 203 1.0 5.0 0.00 0.00 0.00 43 1004.1
20260902051519 69 203 2.0 5.0 0.00 0.00 0.00 43 1003.9
20260902050518 69 203 2.0 3.0 0.00 0.00 0.00 42 1004.0
20260902045540 69 0.0 0.0 0.00 0.00 0.00 42 1003.8
20260902044539 69 225 2.0 5.0 0.00 0.00 0.00 40 1003.5
20260902043519 69 225 1.0 5.0 0.00 0.00 0.00 39 1003.6
20260902042518 70 0.0 0.0 0.00 0.00 0.00 39 1003.7
20260902041520 70 0.0 1.0 0.00 0.00 0.00 38 1003.6
20260902040518 71 158 2.0 5.0 0.00 0.00 0.00 36 1003.6
20260902035538 71 158 1.0 4.0 0.00 0.00 0.00 36 1003.4
20260902034518 72 158 3.0 7.0 0.00 0.00 0.00 36 1003.3
20260902033520 73 158 2.0 7.0 0.00 0.00 0.00 38 1003.3
20260902032520 73 135 2.0 6.0 0.00 0.00 0.00 40 1003.1
20260902031518 72 113 2.0 4.0 0.00 0.00 0.00 41 1002.9
20260902030518 72 90 3.0 5.0 0.00 0.00 0.00 45 1002.9
20260902025521 72 90 5.0 8.0 0.00 0.00 0.00 46 1002.7
20260902024520 72 90 5.0 7.0 0.00 0.00 0.00 46 1002.6
20260902023540 73 90 5.0 7.0 0.00 0.00 0.00 46 1002.6
20260902022518 74 90 5.0 7.0 0.00 0.00 0.00 45 1002.6
20260902021520 74 90 4.0 7.0 0.00 0.00 0.00 45 1002.6
20260902020520 74 90 4.0 6.0 0.00 0.00 0.00 45 1002.6
20260902015520 75 90 5.0 7.0 0.00 0.00 0.00 46 1002.8
20260902014518 76 90 3.0 7.0 0.00 0.00 0.00 48 1002.9
20260902013520 76 90 4.0 7.0 0.00 0.00 0.00 47 1003.0
20260902012520 77 90 4.0 7.0 0.00 0.00 0.00 44 1003.0
20260902011520 77 90 3.0 7.0 0.00 0.00 0.00 43 1003.1
20260902010520 78 90 2.0 6.0 0.00 0.00 0.00 43 1003.0
20260902005520 78 90 3.0 7.0 0.00 0.00 0.00 43 1003.1
20260902004520 78 90 3.0 8.0 0.00 0.00 0.00 40 1003.1
20260902003520 79 113 2.0 5.0 0.00 0.00 0.00 37 1003.1
20260902002520 80 113 2.0 4.0 0.00 0.00 0.00 35 1003.2
20260902001520 81 90 3.0 7.0 0.00 0.00 0.00 36 1003.2
20260902000518 81 113 2.0 6.0 0.00 0.00 0.00 36 1003.3
20260901235520 82 90 3.0 6.0 0.00 0.00 0.00 34 1003.3
20260901234520 82 90 4.0 8.0 0.00 0.00 0.00 33 1003.3
20260901233540 82 90 3.0 8.0 0.00 0.00 0.00 35 1003.5
20260901232540 82 90 3.0 7.0 0.00 0.00 0.00 32 1003.5
20260901231540 82 90 5.0 9.0 0.00 0.00 0.00 34 1003.6
20260901230519 81 90 3.0 7.0 0.00 0.00 0.00 35 1003.6
20260901225520 81 90 4.0 9.0 0.00 0.00 0.00 35 1003.7
20260901224520 80 90 3.0 6.0 0.00 0.00 0.00 38 1003.9
20260901223519 80 113 2.0 7.0 0.00 0.00 0.00 36 1004.1
20260901222519 80 135 2.0 7.0 0.00 0.00 0.00 37 1004.1
20260901221600 80 113 1.0 4.0 0.00 0.00 0.00 35 1004.2
20260901220520 80 0.0 2.0 0.00 0.00 0.00 31 1004.2
20260901215520 80 0.0 0.0 0.00 0.00 0.00 32 1004.3
20260901214519 79 0.0 2.0 0.00 0.00 0.00 34 1004.4
20260901213519 79 0.0 2.0 0.00 0.00 0.00 34 1004.6
20260901212540 78 0.0 3.0 0.00 0.00 0.00 34 1004.6
20260901211519 78 225 2.0 4.0 0.00 0.00 0.00 36 1004.8
20260901210519 77 158 1.0 4.0 0.00 0.00 0.00 37 1004.7
20260901205519 77 225 2.0 6.0 0.00 0.00 0.00 35 1005.0
20260901204519 77 203 2.0 5.0 0.00 0.00 0.00 36 1005.2
20260901203520 77 158 1.0 3.0 0.00 0.00 0.00 35 1005.2
20260901202520 76 180 2.0 5.0 0.00 0.00 0.00 36 1005.4
20260901201520 75 180 1.0 3.0 0.00 0.00 0.00 39 1005.5
20260901200519 73 0.0 1.0 0.00 0.00 0.00 43 1005.3
20260901195519 73 158 1.0 3.0 0.00 0.00 0.00 41 1005.4
20260901194520 72 0.0 1.0 0.00 0.00 0.00 43 1005.5
20260901193519 71 113 2.0 4.0 0.00 0.00 0.00 46 1005.7
20260901192519 71 90 3.0 6.0 0.00 0.00 0.00 45 1005.6
20260901191519 71 0.0 2.0 0.00 0.00 0.00 44 1005.7
20260901190540 71 113 1.0 3.0 0.00 0.00 0.00 47 1006.0
20260901185519 70 0.0 0.0 0.00 0.00 0.00 44 1005.7
20260901184519 70 0.0 0.0 0.00 0.00 0.00 44 1005.7
20260901183519 69 0.0 1.0 0.00 0.00 0.00 47 1005.9
20260901182520 69 0.0 2.0 0.00 0.00 0.00 46 1006.0
20260901181520 69 0.0 0.0 0.00 0.00 0.00 50 1005.7
20260901180519 69 90 1.0 3.0 0.00 0.00 0.00 49 1006.0
20260901175539 69 90 2.0 5.0 0.00 0.00 0.00 48 1005.9
20260901174539 69 0.0 4.0 0.00 0.00 0.00 45 1006.3
20260901173540 68 0.0 0.0 0.00 0.00 0.00 48 1006.2
20260901172519 69 0.0 0.0 0.00 0.00 0.00 49 1006.1
20260901171539 69 0.0 0.0 0.00 0.00 0.00 47 1005.8
20260901170519 69 0.0 0.0 0.00 0.00 0.00 47 1005.9
20260901165519 68 0.0 1.0 0.00 0.00 0.00 44 1005.9
20260901164519 68 0.0 0.0 0.00 0.00 0.00 46 1005.8
20260901163519 69 0.0 3.0 0.00 0.00 0.00 44 1005.9
20260901162519 70 0.0 3.0 0.00 0.00 0.00 41 1006.1
20260901161519 67 0.0 0.0 0.00 0.00 0.00 43 1006.0
20260901160519 67 0.0 1.0 0.00 0.00 0.00 44 1005.9
20260901155519 66 0.0 5.0 0.00 0.00 0.00 43 1005.5
20260901154519 64 0 2.0 5.0 0.00 0.00 0.00 49 1005.5
20260901153519 63 0 1.0 3.0 0.00 0.00 0.00 50 1005.6
20260901152519 64 0.0 0.0 0.00 0.00 0.00 49 1005.6
20260901151519 63 23 1.0 3.0 0.00 0.00 0.00 49 1005.6
20260901150519 62 0.0 0.0 0.00 0.00 0.00 52 1005.6
20260901145519 62 0.0 0.0 0.00 0.00 0.00 52 1005.5
20260901144519 62 0.0 0.0 0.00 0.00 0.00 53 1005.3
20260901143519 61 0.0 0.0 0.00 0.00 0.00 54 1005.4
20260901142539 61 0.0 2.0 0.00 0.00 0.00 53 1005.1
20260901141518 61 0 1.0 4.0 0.00 0.00 0.00 53 1005.1
20260901140519 61 23 2.0 5.0 0.00 0.00 0.00 51 1005.2
20260901135519 61 0.0 1.0 0.00 0.00 0.00 50 1005.2
20260901134519 61 0 3.0 4.0 0.00 0.00 0.00 50 1005.2
20260901133518 61 0.0 0.0 0.00 0.00 0.00 50 1005.4
20260901132538 61 270 1.0 4.0 0.00 0.00 0.00 49 1005.4
20260901131520 62 0 1.0 5.0 0.00 0.00 0.00 49 1005.2
20260901130518 61 0.0 3.0 0.00 0.00 0.00 49 1005.2
20260901125518 60 315 2.0 6.0 0.00 0.00 0.00 53 1005.1
20260901124518 61 0 2.0 7.0 0.00 0.00 0.00 54 1004.8
20260901123519 61 0.0 1.0 0.00 0.00 0.00 51 1004.9
20260901122519 62 0 1.0 5.0 0.00 0.00 0.00 49 1005.3
20260901121518 62 0 5.0 9.0 0.00 0.00 0.00 49 1005.3
20260901120539 61 0 3.0 6.0 0.00 0.00 0.00 50 1005.2
20260901115519 61 0 1.0 5.0 0.00 0.00 0.00 52 1005.3
20260901114518 61 0 2.0 4.0 0.00 0.00 0.00 52 1005.1
20260901113519 60 0.0 2.0 0.00 0.00 0.00 56 1005.0
20260901112519 61 0.0 1.0 0.00 0.00 0.00 54 1005.3
20260901111519 61 0.0 0.0 0.00 0.00 0.00 52 1005.2
20260901110519 61 0.0 0.0 0.00 0.00 0.00 52 1005.1
20260901105538 62 0.0 0.0 0.00 0.00 0.00 51 1005.4
20260901104519 62 0.0 0.0 0.00 0.00 0.00 50 1005.3
20260901103518 63 0.0 0.0 0.00 0.00 0.00 48 1005.4
20260901102538 62 0.0 0.0 0.00 0.00 0.00 48 1005.4
20260901101539 62 0.0 1.0 0.00 0.00 0.00 49 1005.2
20260901100519 63 0 2.0 5.0 0.00 0.00 0.00 48 1005.2
20260901095518 63 0 6.0 8.0 0.00 0.00 0.00 46 1005.1
20260901094518 64 23 1.0 2.0 0.00 0.00 0.00 43 1005.2